Theta_e
352 354 354 355 355 354 354 356 355 355 353 352 350 351 352 354 352 353 358 355 357 357 359 361 362 362 360 362 359 363 365 364 362 367 368 369 369 367 367 371 368 365 367 365 361 359 363 362 363 363 364 360 360 357 355 355 357 358 365 368 361 365 363 360 354 353 358 364 360 357 356 357 358 366 354 351 355 354 354 357 366 361 355 357 359
355 358 357 353 350 350 352 353 355 354 351 350 350 349 349 352 353 356 353 355 356 355 359 356 358 358 357 361 362 363 366 370 360 361 364 365 364 362 361 366 368 367 370 367 366 363 363 364 362 360 362 360 358 355 355 353 350 348 357 357 362 360 368 360 358 355 351 359 358 360 357 361 354 363 354 355 351 364 354 354 352 359 352 363 357
357 358 355 355 357 355 354 350 351 352 350 349 347 347 348 348 352 350 350 351 358 357 357 357 363 363 360 364 363 363 361 361 363 364 363 364 364 361 359 363 364 361 361 364 362 364 360 361 359 358 355 355 357 354 354 353 352 353 353 358 359 357 361 362 358 355 354 354 359 355 356 364 360 359 358 354 362 358 356 352 349 351 351 351 357
360 359 358 356 358 359 355 355 356 357 352 346 346 346 346 346 349 348 348 349 349 354 355 356 361 366 361 364 365 364 364 362 361 361 363 363 363 365 366 367 363 362 361 360 358 360 359 361 360 359 360 358 356 356 358 357 356 356 354 360 358 356 358 353 348 345 347 345 353 355 359 357 358 357 354 356 354 358 357 358 356 353 355 355 356
361 359 359 360 359 358 354 357 358 359 354 352 350 350 353 349 347 347 346 346 348 348 356 359 359 362 357 359 361 362 360 359 360 356 357 361 359 355 351 352 354 358 362 363 362 363 363 360 359 360 359 353 354 353 352 356 355 356 356 356 355 356 354 356 355 355 347 344 348 352 357 361 359 357 363 357 357 359 361 361 359 358 360 357 356
356 356 357 355 358 355 357 358 362 360 358 358 360 360 353 350 353 350 347 347 348 347 349 349 352 357 357 357 357 359 363 362 363 364 359 359 355 354 355 355 356 357 359 359 362 361 360 360 360 360 354 353 354 358 356 358 358 357 361 360 359 359 358 356 357 358 350 349 351 351 356 353 349 353 362 363 360 359 361 362 362 367 359 354 359
361 357 356 355 361 357 357 360 361 358 359 359 362 360 356 353 353 352 349 350 352 346 345 349 351 351 358 359 360 365 365 360 365 366 362 362 359 356 356 354 356 357 357 357 358 358 356 355 359 359 356 353 353 355 359 360 358 357 362 361 359 357 355 356 355 354 353 352 352 356 353 358 353 349 361 364 362 360 358 356 356 363 361 355 353
361 362 363 360 361 358 359 359 364 362 362 364 363 361 359 359 359 357 356 355 349 351 349 345 346 348 351 355 363 367 358 356 359 364 365 362 361 360 359 356 355 356 356 358 358 357 357 358 356 357 358 357 356 359 360 356 358 353 352 353 355 357 358 357 357 355 352 350 350 350 352 352 354 360 355 357 358 363 357 355 351 351 353 357 357
361 362 363 363 363 364 364 369 367 365 364 364 364 363 364 366 364 361 360 357 351 351 352 352 355 354 353 358 358 355 356 358 363 362 361 361 361 360 360 360 359 357 358 359 360 358 356 354 354 356 358 360 362 363 360 359 358 354 354 352 357 360 357 357 357 356 354 353 350 352 351 351 356 355 353 351 349 354 363 357 354 356 355 352 354
361 358 358 360 363 363 364 366 365 364 363 362 361 362 363 362 362 362 362 362 360 360 358 356 355 355 353 356 359 359 357 358 353 352 355 362 361 358 361 360 360 360 361 360 358 358 354 351 352 355 358 358 361 363 361 358 359 359 358 356 361 360 360 358 355 354 354 353 352 351 349 348 352 355 354 354 356 359 357 354 350 354 354 351 352
358 357 356 363 365 365 363 364 364 363 362 362 363 362 361 360 361 363 361 361 361 361 360 356 353 354 353 353 355 356 354 348 340 338 342 347 357 360 361 363 361 361 359 359 358 356 354 352 352 357 355 354 357 361 362 361 362 365 368 365 365 364 360 357 355 356 355 353 353 352 349 348 350 355 358 355 355 351 351 357 354 352 348 344 341
357 357 356 357 358 356 357 359 360 360 361 360 360 360 361 361 361 362 361 358 361 360 360 356 356 356 356 355 354 352 344 333 330 333 335 336 344 355 359 360 359 358 359 356 354 355 353 354 353 352 351 353 356 355 357 361 361 362 363 363 362 367 364 361 358 357 356 354 353 353 351 350 351 355 353 353 355 356 357 357 354 351 348 346 346
356 356 355 356 356 354 353 353 353 354 356 358 359 359 359 358 359 357 358 358 356 355 356 356 355 357 356 354 352 348 338 327 328 330 331 331 335 348 354 357 357 356 357 357 356 353 351 352 351 353 350 356 355 354 356 356 359 361 363 363 364 364 349 348 353 360 358 354 353 353 353 353 352 354 354 356 362 355 356 353 354 355 353 350 349
355 352 352 354 351 350 350 350 349 350 352 354 354 353 352 352 351 353 355 357 355 354 355 356 357 359 356 354 349 338 332 324 323 324 326 327 330 339 349 352 354 356 356 355 352 353 355 351 350 349 350 351 351 348 351 352 355 357 360 360 359 361 362 356 350 350 354 355 355 353 356 358 354 355 358 359 356 354 352 351 353 353 353 351 355
351 352 351 350 350 350 349 347 347 350 351 349 349 349 349 348 348 350 351 352 355 354 354 354 354 353 352 347 337 329 321 317 319 320 320 321 326 338 349 351 353 352 346 349 353 348 351 350 349 350 351 349 342 339 340 342 347 351 354 355 355 356 358 358 358 360 356 355 355 356 357 359 359 360 360 361 359 359 356 354 354 355 356 355 353
349 350 350 349 348 349 348 345 343 345 345 344 344 348 348 348 349 350 349 350 354 353 351 351 349 350 352 345 335 327 321 316 316 317 317 318 325 347 353 356 355 355 350 347 348 349 348 350 348 349 348 338 333 330 333 339 344 347 350 352 353 354 356 359 347 349 364 359 358 358 358 358 350 359 358 353 354 358 357 355 353 353 351 346 344
346 347 348 348 349 350 349 347 344 345 344 345 345 346 346 346 347 348 346 347 348 348 346 346 348 350 346 338 330 324 320 315 313 313 314 316 330 349 353 354 353 348 344 347 352 350 350 350 350 349 335 330 327 322 325 337 341 344 346 347 350 351 352 354 346 342 338 333 330 332 332 332 334 334 331 332 344 349 350 345 343 350 343 339 341
345 345 345 347 348 348 348 348 347 345 343 342 342 342 344 345 346 348 347 346 343 342 342 341 342 344 342 336 331 325 321 317 312 311 312 314 329 343 344 346 348 351 351 348 349 348 351 344 337 333 331 329 321 321 322 332 334 335 337 339 340 344 346 339 340 343 341 340 337 334 333 333 335 336 337 336 334 344 346 340 345 345 340 339 340
342 342 344 346 346 346 346 346 347 346 344 344 344 343 343 343 345 345 343 341 340 340 340 337 336 336 337 335 334 327 324 320 312 311 311 312 324 335 333 333 333 334 336 337 344 349 345 342 340 335 332 326 317 318 321 329 330 330 333 335 337 340 338 335 334 337 341 342 344 347 351 349 352 351 351 350 346 349 349 346 347 345 340 341 342
343 345 346 346 346 345 344 345 345 344 343 343 345 344 344 343 341 339 337 336 335 335 335 333 331 332 333 332 330 330 328 324 318 310 309 311 315 329 326 324 327 330 331 335 339 334 336 338 337 323 320 317 316 314 315 317 327 330 334 335 336 335 333 331 335 338 338 340 342 346 349 352 354 351 348 349 347 341 336 337 335 336 338 341 341
345 346 346 345 345 345 346 345 344 344 344 343 344 343 343 341 340 337 335 334 333 332 331 330 328 327 328 329 328 327 326 325 322 311 309 310 312 320 321 319 321 328 328 329 329 330 332 333 333 326 318 317 314 311 310 312 319 329 335 335 335 333 327 329 334 340 340 342 343 343 345 346 341 340 339 337 337 336 334 333 335 333 332 332 331
345 346 344 343 343 344 344 345 345 344 343 342 341 340 341 340 338 336 335 333 331 330 329 328 327 327 328 329 328 327 328 325 324 318 313 310 310 313 320 319 320 325 324 324 324 328 330 334 335 331 318 316 312 309 308 310 314 326 336 323 315 317 328 331 333 338 342 341 338 337 337 337 336 336 337 337 336 335 332 331 331 332 332 331 329
344 344 344 342 343 343 342 341 341 341 341 341 340 339 339 337 337 336 335 333 332 331 331 331 330 330 330 329 329 328 328 326 322 323 319 313 311 313 314 319 317 327 323 322 324 326 329 332 335 333 316 309 306 308 309 310 318 327 319 312 314 317 327 332 338 340 339 338 336 334 334 333 331 331 333 334 334 333 332 332 330 330 332 333 334
335 333 335 339 340 339 338 338 339 340 340 340 339 338 338 338 338 338 337 334 333 332 332 333 333 329 326 327 328 329 329 330 323 322 325 318 314 313 313 313 314 322 325 326 328 330 332 333 332 316 309 305 306 309 311 317 323 313 310 313 319 326 331 338 338 338 336 333 333 331 330 331 329 327 329 332 335 335 332 329 329 330 330 330 332
333 330 329 328 329 330 333 337 337 336 335 336 337 337 336 338 337 339 338 335 334 334 335 333 331 328 327 327 327 329 330 330 330 329 328 327 320 316 315 315 316 314 327 331 333 333 326 315 312 311 311 310 310 311 316 322 315 313 313 316 336 339 339 338 338 338 335 333 332 331 330 330 330 331 332 332 334 334 332 330 330 331 330 329 330
331 329 325 324 324 326 326 327 329 332 332 332 333 336 335 335 336 338 335 332 334 334 334 333 331 330 326 324 326 325 327 327 329 329 329 329 328 323 322 321 332 332 333 332 331 323 318 315 314 314 317 317 326 337 342 342 332 326 324 333 337 335 335 335 335 334 332 331 332 331 330 331 333 334 337 335 332 332 335 334 332 331 330 331 330
333 330 328 321 323 323 323 322 326 328 329 329 329 329 333 332 329 328 327 327 326 325 325 327 327 325 324 324 324 324 323 324 323 324 324 322 323 326 330 330 331 332 334 333 330 328 331 333 333 325 326 330 334 332 332 335 334 332 333 334 333 333 333 334 332 332 332 331 331 331 331 333 336 336 328 327 326 328 330 330 327 327 327 329 331
325 326 323 324 325 320 319 321 320 321 323 323 322 323 325 324 321 319 320 322 325 325 324 326 325 325 323 322 322 321 322 322 319 317 317 315 316 319 324 326 324 326 327 326 323 325 331 337 335 337 340 336 335 330 330 333 331 329 329 329 330 331 332 334 334 331 331 332 331 333 332 329 325 325 325 324 323 323 326 326 325 325 325 326 322
328 324 324 323 323 329 320 319 316 317 319 320 317 315 316 322 323 319 315 313 314 317 325 322 323 321 322 324 324 322 321 320 318 308 310 304 307 310 316 316 315 317 323 313 317 328 339 338 335 330 328 327 327 326 325 326 327 326 325 326 326 326 327 326 326 327 327 327 326 326 326 325 324 324 323 322 322 323 324 324 324 324 325 324 321
329 324 324 324 326 324 325 323 322 320 316 317 318 317 313 303 310 319 316 310 301 297 306 317 317 323 318 320 322 321 320 320 307 300 297 295 296 297 298 297 297 305 309 307 313 327 334 329 331 328 326 325 323 324 323 323 324 324 324 323 324 323 323 324 324 324 325 325 324 323 323 323 322 323 323 323 324 325 325 325 324 325 323 320 319
334 326 328 328 328 329 325 324 326 328 323 321 321 321 318 318 297 298 307 305 299 295 294 295 300 305 322 319 316 308 310 304 299 296 295 295 294 294 295 296 298 300 303 320 337 329 327 324 323 324 324 322 322 322 324 323 323 323 322 323 323 323 323 322 323 324 323 323 323 323 322 322 320 321 321 322 322 322 322 324 324 323 321 319 318
333 328 327 329 334 331 329 331 329 329 330 330 328 326 321 320 318 302 295 300 299 295 294 293 294 296 297 306 325 322 309 301 294 294 293 293 295 295 296 297 299 300 303 313 332 327 325 324 323 322 322 320 321 323 321 321 322 322 321 321 321 322 323 322 323 324 323 322 322 322 323 322 321 321 322 322 320 321 321 321 322 320 319 319 319
326 328 332 333 334 332 332 332 332 332 329 330 328 328 324 322 319 318 320 298 296 295 295 295 294 293 296 295 294 298 298 296 295 295 296 296 296 296 296 300 301 299 309 325 329 324 324 322 320 321 320 319 320 320 321 320 319 320 321 321 320 321 323 324 324 322 321 321 321 320 320 320 320 319 319 319 320 320 321 320 322 321 321 317 316
328 328 327 331 334 332 331 335 334 333 337 337 333 333 333 329 323 322 319 317 320 309 300 294 295 297 293 293 297 297 295 295 295 296 296 297 297 297 297 309 302 300 307 328 324 322 321 320 319 319 320 320 319 319 320 320 320 320 319 319 319 319 319 318 318 318 318 319 318 317 317 317 316 315 315 316 317 317 316 316 316 316 315 314 314
331 327 325 329 333 333 335 332 330 335 334 331 331 329 333 330 329 325 323 320 320 321 319 318 302 294 312 307 296 294 295 295 297 296 296 297 298 296 299 325 331 325 324 322 322 319 318 318 317 318 318 317 317 317 317 318 317 317 315 317 317 316 315 315 315 317 315 316 316 314 314 314 313 312 311 311 311 311 312 313 313 313 311 311 311
326 330 326 326 330 333 334 332 331 331 329 329 331 328 330 329 327 328 328 330 329 326 323 322 320 308 297 298 293 291 293 294 294 295 295 296 296 299 325 326 320 320 319 320 319 319 318 317 315 315 315 315 315 314 314 314 315 315 316 316 316 316 314 315 316 314 315 314 314 314 312 311 310 310 309 309 309 308 308 309 308 309 309 309 308
321 322 328 328 329 329 329 331 332 330 325 323 325 328 328 328 328 327 329 333 329 327 326 323 320 317 314 321 314 298 294 294 295 295 296 298 297 315 321 319 321 319 318 318 319 318 316 316 316 316 316 314 314 314 315 316 318 317 316 318 318 316 314 317 317 315 315 311 311 311 311 310 311 310 308 307 307 307 306 307 306 306 306 306 307
317 322 325 325 325 327 329 331 325 327 330 326 333 331 327 327 329 329 326 330 331 329 326 325 324 319 318 322 322 320 319 305 304 306 307 308 316 325 327 322 321 318 317 318 319 319 317 316 320 317 315 315 315 315 314 314 315 314 314 318 317 318 313 317 316 314 316 314 311 309 309 308 308 307 306 305 305 305 305 305 304 303 305 306 304
325 327 325 324 324 320 321 323 324 325 327 326 325 326 324 324 324 326 328 326 328 326 329 328 325 324 324 325 322 322 321 318 317 320 323 325 327 321 323 323 322 320 318 317 318 321 320 318 321 316 315 314 314 313 313 312 314 314 314 314 312 312 312 310 310 310 308 306 306 306 306 305 305 305 305 304 304 304 303 303 304 304 303 303 304
320 325 322 324 322 322 324 324 322 323 323 323 321 324 324 324 323 323 323 321 322 322 321 322 324 326 327 326 324 324 321 321 321 322 322 322 322 323 325 323 319 320 320 320 318 317 315 315 318 318 316 314 314 313 313 313 313 312 311 310 309 309 310 310 309 308 307 306 305 304 304 304 304 304 304 304 304 304 304 304 304 304 304 304 304
319 322 326 322 321 320 318 317 319 321 322 323 324 323 323 324 324 323 321 321 321 322 322 323 324 325 322 313 306 314 324 321 321 322 321 323 321 321 321 323 320 319 319 320 319 318 316 316 317 315 314 314 314 313 312 311 310 309 309 309 309 309 308 308 309 307 306 305 304 303 302 302 302 302 301 302 304 304 304 305 304 304 304 305 305
319 318 319 320 323 322 320 319 321 325 323 322 324 321 322 322 322 321 321 320 319 320 319 320 322 319 307 297 296 296 317 321 320 320 321 321 322 320 320 322 318 319 316 315 316 317 317 318 315 314 313 313 312 312 311 309 309 308 308 307 307 307 306 306 306 305 303 302 302 302 301 301 301 301 301 302 301 302 302 302 302 303 303 304 304
321 319 319 320 316 316 316 318 321 320 322 321 320 320 321 321 321 322 320 320 319 318 319 320 320 320 318 312 311 306 319 320 319 320 319 319 321 319 320 318 317 319 320 319 316 318 318 315 314 313 313 313 312 310 309 309 309 308 307 307 306 305 305 305 304 302 301 301 300 301 300 300 300 299 300 300 300 300 300 301 302 303 303 303 302
316 317 319 318 318 316 318 318 318 319 318 319 318 318 319 320 320 321 319 318 317 317 316 317 318 319 321 317 317 318 320 319 319 318 320 318 318 318 318 316 315 316 317 316 315 316 314 313 312 312 314 312 312 312 310 309 308 307 307 306 306 305 304 303 302 301 300 299 299 298 298 298 299 298 299 299 299 299 299 300 301 301 301 301 301
318 318 316 316 318 320 319 325 318 320 318 317 318 319 320 318 316 317 316 315 315 317 315 316 316 317 317 320 321 320 318 319 318 318 318 317 318 318 317 319 317 321 316 314 314 315 315 313 312 311 311 310 310 309 308 308 308 307 305 303 302 302 301 301 301 301 300 299 298 297 297 297 297 297 297 298 299 298 299 299 299 300 300 300 300
317 316 315 314 315 315 316 316 318 318 317 314 312 313 314 316 318 316 315 315 315 314 315 315 315 316 316 317 316 316 316 317 317 316 316 315 315 315 314 315 317 316 313 312 314 314 313 312 310 309 309 309 308 307 307 307 307 305 303 303 301 300 300 301 301 300 299 298 297 297 297 297 296 297 298 298 298 298 298 299 299 300 300 300 301
315 314 314 314 313 315 317 318 315 314 315 312 311 312 313 314 315 315 316 315 314 315 314 314 314 314 314 317 315 317 315 315 315 315 316 316 316 316 315 314 314 313 312 312 312 309 309 309 308 308 308 307 307 308 306 305 304 302 302 300 300 299 298 299 299 299 298 297 298 297 296 296 296 296 297 298 298 298 298 298 299 299 300 300 300
316 314 314 314 312 312 312 314 314 314 314 314 313 313 313 313 313 313 313 313 314 314 314 314 314 314 314 314 314 314 315 314 315 314 314 313 313 312 314 314 313 311 312 312 312 310 309 308 308 308 307 308 307 305 306 305 303 301 300 299 298 298 298 298 299 299 298 298 298 297 297 296 296 296 296 297 297 297 297 298 299 299 300 300 301
312 313 313 312 312 312 312 312 313 311 312 312 311 312 313 312 312 312 312 312 312 313 313 314 312 313 313 315 313 313 313 313 313 313 311 312 312 313 312 311 311 311 310 308 308 309 310 309 308 308 307 307 306 305 304 302 300 300 299 298 298 296 293 294 297 298 297 298 297 297 296 296 296 296 297 297 297 298 298 299 299 299 300 301 301
313 314 312 312 313 311 313 312 311 311 312 311 311 311 311 311 311 312 311 312 311 312 313 312 312 311 311 311 311 311 311 310 310 311 311 311 311 312 312 312 311 310 309 308 307 308 308 308 307 306 306 306 305 304 303 301 301 299 298 298 294 291 292 293 296 296 297 297 297 297 296 296 297 297 297 297 298 298 298 298 299 300 300 300 300
313 312 310 311 312 310 310 312 312 312 312 311 311 311 310 311 311 310 310 310 310 309 310 311 311 311 311 311 311 310 309 310 309 310 312 313 311 311 311 310 310 310 308 309 308 308 308 306 305 304 304 304 303 302 301 300 300 298 296 294 291 289 288 289 296 292 291 292 296 296 296 297 297 297 298 298 298 298 299 299 299 299 299 300 300
Wind_Speed
11 9 9 9 9 10 11 10 11 10 10 9 8 7 7 6 6 7 3 5 6 7 5 5 5 6 7 6 6 3 4 5 5 5 5 5 5 4 4 2 3 4 4 5 7 5 4 5 4 5 6 6 5 5 6 5 4 4 3 2 3 2 3 3 4 6 4 3 4 5 5 5 1 1 5 4 3 5 6 4 3 3 3 3 5
3 3 6 8 10 10 10 10 10 9 10 9 8 8 7 5 6 5 8 8 6 6 7 8 7 5 7 6 6 4 2 3 6 5 5 5 6 7 6 4 4 4 3 4 4 5 5 5 6 7 5 6 7 8 6 7 7 6 3 3 2 3 2 3 3 4 7 3 4 4 4 3 4 3 4 5 4 1 4 4 4 3 5 1 5
5 6 8 10 7 2 3 6 10 10 11 9 9 10 9 8 5 7 7 7 5 5 4 6 4 4 5 3 5 6 5 6 5 4 5 6 7 8 6 4 4 4 5 5 5 4 5 6 7 6 7 7 5 6 7 6 7 6 4 1 2 3 3 4 3 4 6 5 4 5 3 2 3 3 3 4 3 4 4 5 6 5 3 5 5
7 5 4 4 7 1 1 4 5 6 6 7 10 10 9 9 7 8 8 7 8 7 9 7 4 4 4 5 4 4 5 6 6 7 6 6 6 6 5 3 3 3 4 5 6 5 6 4 6 6 5 6 9 9 7 6 5 4 5 3 2 4 6 10 11 8 7 8 7 7 6 5 5 4 7 4 4 5 3 3 5 6 5 4 7
6 6 5 4 5 2 1 3 1 2 2 2 5 6 9 8 7 8 8 8 8 7 4 5 6 7 8 6 5 5 6 7 6 7 6 5 3 9 12 10 9 9 7 4 6 5 5 5 6 6 4 4 3 7 9 8 8 5 4 4 3 4 1 2 3 3 3 4 5 6 8 5 4 8 4 3 4 3 4 4 4 3 4 5 5
7 8 6 5 5 5 5 6 4 4 2 2 3 3 6 7 9 5 5 8 7 7 7 6 6 6 6 6 6 6 4 5 5 4 3 5 8 7 6 4 5 7 8 7 5 5 6 5 5 2 3 2 3 5 6 6 5 5 3 3 2 2 2 3 0 3 4 5 5 7 3 4 3 4 5 3 3 3 3 3 4 2 3 5 3
6 7 7 8 6 10 7 6 6 4 3 5 4 5 6 7 6 5 3 6 8 7 8 6 5 6 5 5 4 2 5 10 10 6 4 4 6 2 3 5 6 4 5 7 8 7 6 5 3 3 2 2 4 6 4 2 3 5 5 4 3 2 1 3 3 3 3 5 4 4 3 1 2 4 3 5 3 1 2 3 4 2 1 1 2
7 7 6 7 7 9 8 8 6 6 4 3 3 4 5 4 3 3 2 4 4 7 8 8 8 6 6 7 5 4 9 5 1 3 3 2 2 4 3 4 4 4 5 7 7 6 5 5 4 3 3 3 3 4 1 2 1 2 3 2 2 3 2 2 3 3 3 3 4 4 2 3 4 2 1 4 4 2 2 2 4 5 5 1 1
4 5 5 4 3 3 2 3 3 4 4 3 3 4 3 2 2 3 3 4 5 4 3 7 8 4 8 11 11 7 4 4 2 3 2 2 0 1 1 2 3 3 5 7 6 7 6 10 12 9 3 4 6 6 3 2 1 1 3 3 4 4 2 2 2 2 3 3 4 3 3 4 2 1 3 3 5 6 0 1 3 3 2 5 4
3 1 1 2 2 2 2 2 1 2 2 2 2 2 2 3 3 4 4 4 5 3 2 2 6 8 7 6 7 6 4 3 5 5 3 1 1 2 2 2 3 3 4 5 6 5 7 1 1 7 14 16 13 7 1 2 4 6 6 5 6 4 4 4 4 4 4 4 4 4 5 5 4 3 3 4 3 3 3 4 5 3 1 4 4
1 1 2 3 3 4 2 1 1 1 1 1 1 1 2 3 4 4 3 3 4 3 3 2 5 5 7 7 6 5 4 3 7 7 7 6 3 4 4 3 3 3 4 3 2 4 3 3 2 4 5 8 10 12 8 7 8 8 9 10 9 5 4 5 5 4 4 5 5 5 6 7 6 4 3 3 4 5 5 4 5 3 3 2 5
2 2 2 2 2 1 2 4 4 4 3 2 2 2 2 2 3 3 4 3 3 3 3 3 3 4 5 7 6 5 5 7 7 8 8 7 6 4 3 4 4 4 2 1 1 1 3 2 3 1 2 4 1 4 5 9 10 10 9 8 6 7 6 5 5 5 5 6 6 6 6 7 6 4 5 4 4 4 5 4 4 5 4 3 3
1 2 1 2 1 2 2 1 2 4 4 3 3 2 2 3 4 4 4 3 3 2 3 2 1 3 6 6 7 7 6 11 9 8 6 6 6 5 4 4 4 5 4 2 1 1 0 2 2 2 3 5 5 5 5 6 8 9 9 8 8 6 8 10 8 7 6 7 9 8 7 6 7 6 4 5 2 5 4 5 5 4 4 4 4
1 2 1 1 2 1 2 3 2 3 3 3 4 4 3 4 7 6 5 3 1 1 1 2 1 4 6 6 7 9 7 11 11 11 10 8 7 5 3 5 6 5 5 4 2 2 2 1 1 2 2 4 4 6 7 7 6 5 4 3 4 6 7 7 11 12 9 7 8 9 7 5 8 8 7 5 7 7 6 7 5 6 5 5 3
4 2 3 2 2 2 3 2 3 4 3 4 2 3 4 3 5 2 3 5 3 2 3 3 1 4 7 8 9 9 7 13 12 11 10 10 9 6 3 5 2 6 2 4 5 6 5 5 5 3 2 4 4 8 7 7 7 6 5 5 5 5 5 6 6 5 5 6 8 10 8 6 7 8 7 6 7 6 6 8 8 7 3 3 5
6 6 5 4 2 2 1 3 5 6 4 4 4 3 3 5 3 4 1 4 3 4 4 4 4 3 3 9 9 8 8 13 12 12 12 12 11 4 3 2 3 1 5 5 3 1 3 1 2 2 5 5 8 10 9 6 6 7 7 7 6 6 5 5 7 8 7 6 7 8 8 9 8 7 6 5 6 7 7 8 6 6 4 3 5
5 5 5 5 5 6 5 6 5 4 3 4 4 3 5 5 4 3 2 3 3 5 6 5 6 6 9 9 9 8 8 12 14 14 14 14 8 4 3 3 2 5 2 2 2 3 2 1 1 4 6 5 6 7 9 10 5 6 7 7 6 6 6 5 8 8 7 9 10 11 11 12 13 13 12 7 5 3 4 6 9 5 3 6 5
6 6 7 7 7 6 6 6 6 8 6 4 4 3 4 3 3 1 4 4 4 6 6 7 8 9 10 10 8 8 7 10 14 14 15 16 11 6 6 4 5 3 4 5 4 4 5 14 8 4 3 2 2 5 9 8 5 5 6 8 7 7 5 8 7 8 11 9 9 9 9 10 12 11 10 10 7 0 4 8 7 0 6 8 8
7 7 7 6 6 7 7 7 8 8 8 8 6 6 6 6 5 6 6 6 7 6 7 8 9 9 8 8 12 8 6 9 11 13 15 15 11 6 6 5 5 6 4 4 5 7 6 7 9 5 3 2 3 5 6 7 4 5 5 5 6 7 6 7 7 9 9 9 8 8 7 6 5 5 6 7 8 10 9 8 8 7 8 8 5
6 5 5 5 6 7 6 8 9 8 8 9 8 7 6 7 8 8 7 7 7 8 8 8 9 7 8 8 8 7 7 6 8 13 13 14 14 7 6 6 6 5 4 3 3 4 3 2 5 6 5 6 8 8 6 4 3 4 4 4 5 6 6 7 8 7 7 7 7 7 7 7 6 7 7 7 8 10 10 10 10 8 7 5 2
7 7 7 8 9 9 7 7 8 9 9 10 8 7 7 7 7 7 7 6 7 7 6 6 6 6 5 5 6 7 6 5 7 10 10 12 13 10 6 6 5 5 5 5 5 5 4 4 3 4 8 8 8 8 7 6 5 4 3 3 3 5 6 5 7 10 6 7 7 8 8 8 7 6 8 8 7 7 9 9 9 9 8 7 7
5 6 8 8 8 8 8 7 8 8 8 8 8 7 6 7 6 6 6 6 7 7 6 6 6 5 5 5 6 6 7 9 5 8 9 9 10 10 5 4 3 3 3 3 3 2 3 2 3 4 8 9 9 8 7 7 7 5 4 2 6 7 5 5 5 5 5 6 6 7 8 7 7 7 7 7 7 7 8 8 7 7 8 8 7
5 5 6 8 8 8 8 9 8 7 8 8 9 8 7 7 7 7 7 7 7 7 6 5 5 5 5 5 4 4 4 5 7 5 6 6 5 5 5 4 7 4 2 2 2 4 4 3 4 7 9 9 9 9 8 8 6 5 6 7 8 9 7 4 5 5 6 6 6 7 6 7 7 7 7 7 7 7 6 6 6 6 7 7 8
6 7 6 5 5 8 8 8 8 8 9 8 8 7 7 7 6 6 6 6 6 5 4 4 4 5 4 4 2 2 2 2 3 3 3 2 3 4 5 6 5 3 4 4 4 4 5 4 5 10 13 11 9 8 7 6 5 10 9 8 9 8 4 4 5 5 5 6 6 6 6 5 5 5 5 4 4 4 4 5 5 5 5 4 3
4 4 5 6 7 8 7 5 6 7 7 7 6 6 7 6 6 5 5 6 6 5 4 4 4 4 4 3 3 3 2 2 3 2 1 2 2 4 6 6 7 4 3 3 4 4 8 12 14 13 11 12 11 8 6 7 9 9 7 8 10 4 6 6 5 4 4 5 5 5 5 4 3 2 2 3 3 3 3 3 3 3 3 3 4
5 6 6 6 6 6 6 7 7 6 6 5 5 4 6 6 4 3 4 5 5 5 3 3 3 3 4 5 4 5 5 5 4 5 6 7 4 4 6 5 6 6 6 5 7 11 12 12 14 13 8 6 4 2 2 4 4 6 6 5 5 6 6 7 7 6 5 5 5 4 2 1 2 2 1 3 5 5 3 0 0 0 1 1 2
4 4 4 6 6 6 7 6 7 9 10 8 7 6 6 8 8 7 8 7 7 6 5 4 3 3 5 5 6 6 6 6 6 5 6 6 6 6 6 6 8 7 5 4 5 6 8 7 6 8 2 2 1 1 2 8 10 9 6 7 6 6 6 6 6 6 5 5 5 5 4 4 3 3 6 6 6 6 6 6 5 5 5 4 2
5 5 7 5 5 6 5 9 9 8 9 9 8 9 8 8 8 8 7 6 6 4 4 4 5 5 6 5 5 5 6 5 5 5 5 5 5 6 6 5 6 5 6 6 7 6 5 6 2 4 4 4 5 5 7 6 7 7 7 7 8 8 10 11 10 7 6 6 5 4 4 5 6 6 5 6 6 6 6 6 6 6 6 5 4
9 10 7 6 5 4 7 7 7 7 7 8 8 7 6 6 6 7 7 5 5 4 5 6 6 6 6 6 4 4 5 4 3 2 3 4 4 4 5 5 6 5 5 6 7 6 4 2 4 4 5 5 5 6 6 6 6 7 9 8 7 7 7 7 7 8 8 8 8 7 7 7 6 6 5 5 6 6 7 7 6 6 5 4 3
5 7 6 8 8 6 7 7 6 6 7 7 7 7 9 12 9 6 5 8 10 9 8 6 3 4 6 5 5 4 4 2 1 2 4 4 4 5 7 8 8 7 10 11 3 3 4 5 5 4 5 6 6 6 7 6 7 6 6 7 7 8 8 7 6 6 6 6 6 6 6 5 6 6 6 5 4 4 5 5 5 5 5 6 5
2 6 6 6 6 7 6 6 6 6 6 6 6 5 5 7 10 11 9 7 7 7 9 9 11 10 5 4 5 7 6 2 2 5 7 8 8 8 9 11 11 13 11 8 2 5 7 6 7 7 6 7 7 7 6 6 6 6 6 6 7 9 7 6 5 4 4 4 4 4 4 4 4 4 3 4 4 4 4 4 4 4 5 5 5
4 5 6 5 4 4 4 4 5 5 5 4 4 5 4 5 4 5 6 7 6 8 10 11 11 11 11 9 4 2 2 2 6 7 8 8 10 10 12 12 13 13 16 5 5 6 5 6 6 7 7 8 8 7 8 8 7 7 6 7 7 6 6 6 6 6 4 4 4 3 2 2 1 0 2 1 1 2 3 3 2 2 3 3 4
7 7 5 4 4 3 4 3 3 3 4 5 5 4 4 5 5 4 3 5 6 7 9 9 8 8 10 10 9 5 0 4 6 7 7 8 9 9 10 12 12 13 12 7 5 6 6 6 6 6 7 7 7 7 6 7 7 7 7 6 6 5 6 7 6 7 7 7 6 7 7 5 6 6 6 6 4 3 3 3 3 1 1 3 4
5 3 3 3 2 1 3 1 3 3 2 3 0 4 4 4 6 5 5 4 1 2 4 5 5 5 5 5 4 2 3 4 5 6 7 7 7 7 5 7 12 10 1 7 7 6 6 6 7 7 6 7 7 7 6 6 6 6 7 7 7 7 8 8 8 8 7 6 6 7 7 6 7 7 7 7 6 6 7 7 7 6 5 5 5
4 3 4 4 2 2 1 2 2 2 3 4 2 4 1 2 3 6 7 6 5 5 5 2 1 1 2 0 1 4 4 6 8 8 9 9 10 9 7 4 1 5 6 7 6 7 7 7 7 7 7 7 7 7 7 7 6 6 7 6 5 5 6 6 6 6 7 7 6 7 7 7 7 7 7 8 8 8 7 7 6 6 6 6 5
2 3 4 3 4 3 2 4 3 4 5 5 4 5 1 3 3 3 3 4 5 7 6 5 4 3 3 2 1 2 5 7 7 9 9 10 10 8 6 6 5 5 5 5 6 6 6 7 7 7 6 6 7 6 6 7 6 5 3 3 4 4 3 3 3 4 5 5 4 4 4 3 4 4 4 5 6 7 7 7 7 7 8 7 6
5 6 6 7 7 6 5 3 3 3 1 2 3 5 5 4 2 2 2 1 3 2 6 6 5 3 2 3 4 3 4 3 5 8 10 11 11 6 3 5 6 5 4 4 4 5 5 5 4 3 3 5 4 4 4 3 2 2 3 4 4 3 2 2 2 1 2 4 5 5 6 5 4 4 4 4 3 4 4 5 5 7 7 9 9
4 3 5 4 4 5 5 4 3 4 2 2 4 4 4 4 3 3 2 2 1 2 5 7 6 6 6 5 7 5 3 3 4 6 7 6 6 3 3 4 4 5 5 4 4 4 5 5 2 4 6 5 4 3 4 5 5 5 5 2 1 4 2 3 5 5 3 2 4 4 5 7 7 8 8 8 8 7 7 7 6 6 5 6 5
2 6 7 6 4 2 3 3 4 3 4 5 3 3 2 3 3 2 3 3 3 2 2 6 7 6 6 6 5 4 4 2 3 3 3 3 1 4 3 3 2 3 4 4 3 2 2 2 2 5 4 5 5 5 5 5 5 4 4 6 6 7 7 6 8 8 9 9 8 8 7 7 7 7 6 6 5 6 6 6 6 6 6 5 3
2 5 3 2 1 1 2 2 2 4 5 5 4 3 2 4 5 4 3 5 6 7 6 6 6 6 7 7 6 5 4 3 3 4 4 3 2 2 2 2 5 4 3 4 4 4 5 6 4 3 5 5 4 4 4 3 3 3 4 5 7 7 7 6 5 5 6 7 7 8 8 8 8 8 7 7 6 5 5 5 5 6 6 6 6
4 2 5 4 3 1 2 2 3 3 3 2 3 5 4 3 2 5 5 4 4 4 5 4 5 4 4 5 6 4 2 3 3 3 3 2 3 2 2 2 3 2 2 3 3 3 4 4 4 5 4 4 4 5 6 6 7 7 7 6 5 6 6 6 6 6 8 8 7 7 7 7 7 7 7 8 9 9 8 6 5 5 6 6 5
3 3 3 2 4 3 2 3 2 2 1 1 2 3 3 2 3 3 3 4 4 3 4 3 6 4 5 6 4 4 2 3 3 3 2 2 2 4 1 3 6 4 4 4 4 4 3 3 4 5 4 4 4 4 5 6 6 6 6 6 7 7 7 6 7 9 8 8 7 7 7 8 8 7 8 9 7 8 8 9 8 7 6 7 7
2 3 0 1 2 1 1 3 3 3 3 3 6 4 2 3 3 3 3 3 3 3 2 2 5 6 4 3 2 2 3 3 2 1 1 0 3 3 1 3 4 3 1 2 3 3 3 3 3 4 5 5 5 5 5 5 5 6 6 5 5 5 6 6 7 8 8 8 8 8 8 8 9 8 7 8 8 8 8 9 9 8 6 7 7
2 3 2 1 1 1 2 3 3 3 4 4 3 2 2 2 3 4 3 2 3 4 4 3 3 3 3 4 2 1 3 3 3 4 4 3 4 3 3 6 4 2 2 4 4 3 3 3 4 4 4 4 5 5 5 5 6 7 7 7 5 5 5 6 6 6 6 7 7 7 8 8 9 8 9 9 9 9 9 9 9 9 8 7 6
5 5 6 3 2 1 1 2 1 2 2 2 4 3 4 4 3 2 4 4 3 4 5 7 5 2 2 3 2 2 2 2 3 2 2 3 2 2 1 2 3 2 2 4 3 2 2 3 3 3 5 5 6 6 6 7 6 7 8 9 9 8 7 7 6 6 7 6 6 7 8 9 8 8 8 8 8 8 8 8 9 10 8 7 7
4 2 2 2 2 2 2 6 3 2 2 2 4 4 3 3 3 3 3 4 5 6 7 6 6 5 4 4 4 4 3 3 2 2 2 3 4 6 7 5 2 3 4 4 3 3 4 4 5 5 6 6 6 5 5 5 6 9 8 7 7 7 6 6 6 6 7 7 7 7 7 9 8 8 10 8 8 8 8 8 8 8 7 7 6
2 1 1 2 5 5 4 3 2 3 3 3 5 5 3 2 4 5 3 5 4 3 2 4 5 5 5 3 3 2 3 3 3 3 3 3 3 4 3 3 3 5 7 6 7 7 7 6 6 6 6 5 5 5 5 5 6 7 7 7 6 6 5 5 5 5 5 5 6 6 7 7 7 7 8 8 7 8 8 8 8 8 7 7 7
5 2 2 3 2 2 2 3 1 4 1 2 2 3 3 4 3 2 4 2 2 2 2 1 2 3 4 5 4 4 5 4 4 4 5 6 6 5 5 5 6 6 4 3 3 4 5 5 5 4 4 5 6 6 5 5 8 7 6 6 5 4 4 4 4 4 4 5 6 7 7 6 7 7 7 8 7 7 7 7 7 7 7 7 7
2 3 3 1 1 1 3 2 1 4 3 2 2 1 1 3 4 4 2 3 3 3 3 1 2 1 1 2 2 3 3 3 4 5 5 5 5 5 5 5 4 4 5 6 6 4 4 4 4 4 4 5 5 5 5 7 7 6 5 5 3 3 3 5 4 3 5 5 6 7 7 7 7 7 8 7 7 7 7 7 7 8 7 7 7
1 2 3 3 2 1 2 2 1 2 3 3 2 3 2 1 2 2 2 3 4 3 3 3 6 5 4 4 5 4 4 5 5 4 4 3 3 3 2 2 2 3 4 4 3 3 4 4 5 5 5 4 4 4 5 7 5 5 4 3 3 1 2 4 6 5 4 5 5 6 7 7 7 7 7 7 7 8 8 8 7 8 8 7 7
2 1 2 4 3 2 4 1 2 6 3 1 2 2 2 2 1 3 4 3 1 1 2 3 3 3 3 3 4 3 3 2 2 2 1 2 1 1 1 2 2 2 2 2 3 3 3 3 3 4 4 4 4 5 6 5 4 4 5 4 3 2 3 4 3 2 3 5 5 6 6 7 8 8 7 7 7 7 8 9 9 8 8 8 7
Wind_Direction
177 186 192 195 197 190 197 200 209 215 224 219 226 227 218 219 221 221 226 231 195 204 210 217 220 186 200 211 221 229 216 195 205 185 195 213 219 235 258 200 208 228 236 251 265 267 243 244 266 276 280 280 285 287 285 278 258 236 229 264 257 209 208 219 261 277 273 274 292 284 280 277 276 289 285 293 268 226 231 242 221 232 259 262 149
145 195 204 193 200 202 200 197 209 212 220 225 226 235 239 215 220 221 210 229 228 198 200 220 219 227 217 181 218 201 199 208 216 205 199 204 221 225 230 220 215 227 234 255 253 264 273 282 268 256 253 261 266 268 270 273 269 273 231 228 243 261 188 240 247 259 280 287 282 275 297 301 279 222 265 263 260 295 309 306 303 297 279 357 146
94 82 57 350 284 228 290 228 205 214 219 227 227 226 227 235 229 228 229 241 201 226 216 215 231 228 238 189 204 202 216 212 208 217 209 204 214 232 241 223 226 238 236 237 254 270 271 258 265 270 273 272 274 283 285 289 305 321 325 239 229 235 234 225 258 269 289 292 284 292 291 287 259 287 272 278 301 293 280 273 275 279 298 347 58
97 105 98 131 312 322 109 310 19 354 301 243 233 231 227 223 224 226 235 235 236 211 209 212 192 233 228 224 229 225 195 200 212 217 224 213 211 215 231 237 238 242 263 278 275 265 269 288 288 291 316 351 348 331 311 318 319 289 292 315 326 336 5 37 37 356 336 328 317 316 314 317 336 326 313 332 355 355 338 344 346 338 346 324 92
131 144 158 152 196 235 300 272 111 151 132 342 327 337 327 290 228 223 233 245 237 233 222 195 200 190 216 223 231 228 221 224 229 233 236 237 352 13 24 352 327 309 279 245 255 256 254 253 257 263 72 46 334 293 302 311 298 307 330 32 57 71 120 63 106 177 194 261 297 304 306 304 335 332 1 350 320 327 340 324 333 337 6 18 52
166 170 157 172 204 176 218 221 199 153 143 256 283 322 275 288 312 304 255 233 228 242 239 221 220 216 217 228 223 232 225 233 238 249 291 52 110 145 181 191 238 248 271 274 262 264 268 279 289 40 94 166 226 241 249 263 294 320 13 2 37 73 46 94 178 238 223 236 239 278 299 344 348 287 292 334 322 304 315 331 328 12 28 1 37
165 171 173 182 195 178 170 222 201 176 185 194 207 220 242 265 284 297 338 355 335 260 234 248 232 215 209 225 242 271 21 26 360 22 48 63 62 73 185 201 234 251 268 270 265 267 278 287 309 76 109 167 249 265 272 334 345 1 11 355 18 35 201 155 185 205 242 257 258 250 286 190 199 275 328 354 305 272 262 303 303 267 90 78 1
165 166 178 187 199 190 192 203 147 158 174 200 211 232 252 254 263 293 328 310 314 334 305 253 233 225 210 202 213 92 77 105 66 322 13 64 140 170 199 243 250 274 292 294 293 289 284 269 245 214 203 209 237 285 354 291 330 14 24 332 326 282 243 215 192 198 236 270 267 285 280 287 275 191 4 282 296 260 241 254 260 288 312 338 165
163 169 167 198 194 215 182 130 118 136 166 205 230 242 250 293 327 326 329 308 297 308 338 0 347 329 36 41 55 71 121 100 65 6 7 33 166 298 251 232 269 278 277 279 285 283 315 3 352 341 315 254 255 258 269 304 13 312 266 258 257 202 226 225 216 211 247 254 256 228 253 259 252 124 254 269 248 271 304 303 269 270 314 316 312
31 16 230 213 219 212 164 125 144 160 187 205 243 286 300 311 323 334 332 332 321 337 344 20 43 55 79 93 106 94 83 89 37 32 13 322 269 237 251 256 262 260 271 289 297 325 70 184 174 344 321 316 298 298 351 286 246 243 234 234 242 243 246 236 236 233 236 248 260 258 264 266 255 244 221 238 278 299 271 246 259 275 309 291 285
214 273 9 4 19 19 16 232 255 262 255 321 350 334 329 329 332 322 317 318 312 329 334 32 87 90 95 108 112 112 97 72 40 34 40 22 319 247 232 223 226 246 255 253 312 18 23 65 31 27 8 314 321 340 323 281 262 268 242 242 255 247 250 259 267 268 253 248 258 256 259 264 264 248 202 235 229 238 248 244 246 251 250 277 297
182 130 139 264 67 17 355 355 334 313 313 321 322 328 312 316 310 314 313 307 335 349 29 26 61 92 109 111 117 106 74 40 51 51 47 29 10 320 273 254 253 253 284 11 311 46 20 31 79 73 232 228 302 301 311 323 331 328 320 307 285 239 245 251 276 276 258 264 261 252 261 264 267 248 257 251 252 239 235 239 220 220 207 207 212
25 14 23 238 113 36 6 340 331 329 321 312 303 309 329 340 350 337 326 1 2 11 31 32 108 133 115 115 106 91 75 22 18 31 46 40 17 336 283 262 261 262 245 245 74 72 274 358 19 167 260 315 334 322 325 319 315 314 304 300 295 271 235 246 248 255 286 280 278 276 262 277 275 264 248 264 215 259 258 256 248 230 215 221 225
79 91 154 328 39 42 311 305 277 277 295 14 18 12 11 13 358 343 324 303 321 340 77 82 132 104 97 106 89 68 49 9 15 17 18 7 355 339 299 301 288 301 351 2 4 52 36 43 12 347 312 310 350 347 335 323 320 311 303 297 298 308 302 237 233 245 245 259 271 272 273 254 261 271 272 274 276 266 266 263 265 269 247 240 234
66 74 72 52 331 284 154 109 346 336 17 9 332 308 284 206 209 277 328 306 259 146 94 88 119 113 116 104 81 63 37 13 15 6 5 356 341 305 276 263 325 59 57 300 2 28 353 24 349 313 348 49 28 4 342 328 321 315 308 301 297 293 287 290 278 241 233 259 259 267 273 268 273 280 277 273 270 273 259 264 265 259 254 283 286
60 66 72 72 51 337 9 45 10 343 354 0 331 284 239 236 190 140 63 330 21 73 30 24 57 348 34 78 84 68 38 16 8 9 3 354 330 296 293 334 45 113 73 13 1 257 266 228 182 277 67 59 10 355 344 326 313 311 311 309 304 295 287 302 298 282 264 248 260 265 272 292 302 290 299 314 306 291 287 281 285 265 250 255 254
58 68 80 81 73 64 65 122 170 227 284 294 295 345 2 54 64 98 129 299 5 55 71 30 23 61 76 79 80 72 48 17 15 14 7 357 338 309 336 3 22 45 360 92 149 132 176 162 179 49 58 44 1 343 343 342 324 329 322 319 312 308 302 315 332 354 349 330 314 312 313 308 305 303 301 296 286 345 8 313 276 269 321 303 295
62 63 69 67 72 74 74 72 90 104 111 96 81 72 62 21 28 5 140 149 87 75 66 55 47 47 61 71 71 73 60 29 15 17 13 6 351 9 21 31 51 47 81 72 83 70 73 71 67 71 86 82 346 1 352 351 345 343 337 335 331 319 7 16 339 332 335 319 301 279 273 282 285 286 282 269 258 223 240 246 270 162 244 237 246
74 70 67 68 74 74 67 70 85 83 79 80 80 79 87 80 54 50 56 57 62 58 58 65 63 57 62 77 83 84 72 47 22 17 21 17 11 24 21 27 28 32 42 35 53 98 97 83 84 84 81 57 23 22 6 0 345 336 336 322 325 335 12 348 339 325 331 329 325 322 308 285 270 270 284 267 217 228 232 249 252 221 228 230 237
79 68 72 82 85 83 77 75 75 79 82 82 77 78 87 79 75 75 67 66 60 55 55 52 55 49 45 45 44 55 68 62 35 25 22 21 18 27 35 29 24 18 19 10 50 80 74 146 118 95 70 30 13 6 360 359 333 326 322 327 345 334 345 331 322 328 317 322 319 313 310 317 332 6 15 17 39 40 40 34 30 15 358 343 266
76 76 78 77 74 71 70 72 77 79 77 77 76 77 70 76 77 79 75 69 72 70 69 67 67 63 56 61 64 54 52 52 50 42 31 26 22 25 44 27 3 359 352 356 356 30 21 18 349 79 48 21 7 352 333 327 314 299 300 311 339 321 319 316 315 315 312 325 345 359 2 24 40 42 47 52 50 42 45 42 44 34 36 30 33
83 97 94 85 84 85 86 80 78 80 81 81 82 75 76 80 81 82 82 80 77 76 77 75 78 79 71 63 61 58 49 49 35 40 30 24 24 14 37 45 354 341 332 360 359 0 326 341 329 56 35 14 351 330 320 316 306 297 290 314 314 324 327 310 289 298 358 26 31 22 26 26 30 33 44 49 49 48 47 44 38 41 42 49 52
102 99 94 92 92 95 95 91 87 84 85 90 90 88 86 86 86 88 84 79 80 86 93 100 89 77 71 61 64 62 51 53 43 33 28 10 0 6 348 344 326 317 328 333 336 305 309 325 325 0 354 345 331 319 321 321 316 274 313 336 319 314 307 287 295 17 37 42 50 44 32 35 35 31 33 39 46 56 57 53 52 50 50 47 62
51 51 51 58 96 105 96 90 99 112 114 107 100 101 101 101 105 111 113 103 103 102 88 84 78 82 83 92 91 87 85 71 81 35 356 300 308 287 292 287 278 306 319 305 304 304 294 303 317 323 318 313 309 308 307 303 282 301 317 311 306 290 269 295 43 59 62 56 53 55 52 40 50 42 32 23 28 43 54 47 46 55 62 46 47
44 68 79 76 52 45 49 71 98 104 102 99 102 98 95 100 104 117 110 110 113 108 117 113 109 109 99 92 101 98 103 117 75 148 274 321 233 285 293 296 298 265 278 307 304 306 307 306 307 303 299 292 286 290 284 265 256 266 285 303 300 7 20 23 28 48 53 51 55 53 56 50 31 31 16 28 40 45 53 49 45 43 49 46 40
54 46 44 34 47 84 92 76 59 61 72 76 80 98 111 106 88 78 95 109 105 111 110 103 117 121 115 89 86 81 70 49 44 28 16 7 21 337 317 309 350 342 288 267 293 295 292 288 285 285 277 258 259 264 290 311 291 251 256 281 34 39 34 30 32 32 40 37 49 62 67 15 0 297 15 37 26 15 9 56 202 69 251 311 43
121 114 96 77 61 41 31 37 50 42 29 40 47 51 47 52 46 33 21 32 59 51 42 34 30 72 90 89 82 74 61 48 30 18 16 1 0 348 2 12 1 345 338 7 339 319 299 297 293 296 335 195 291 328 334 29 39 33 37 63 49 43 38 47 36 31 27 44 48 53 38 24 4 15 29 25 26 18 11 20 22 19 8 1 5
75 85 81 95 109 98 82 63 58 53 46 39 33 24 34 49 54 39 25 15 19 40 81 54 39 41 45 55 70 67 63 51 33 10 6 2 350 347 357 6 359 346 341 341 328 300 293 290 322 26 54 61 46 54 42 45 48 44 35 36 46 37 32 35 45 35 29 24 27 24 46 43 36 30 32 29 25 17 10 19 18 11 9 1 24
18 32 39 65 73 88 87 81 72 76 80 69 56 42 19 25 56 67 43 26 18 12 24 52 38 56 51 32 39 71 66 50 40 17 333 333 334 336 355 355 341 323 312 329 308 306 304 66 39 60 61 66 67 56 49 45 64 58 47 40 42 40 28 25 26 32 27 26 28 26 24 35 33 29 27 30 22 10 7 7 12 11 357 7 17
52 45 39 24 18 39 69 72 83 98 88 79 77 68 56 54 40 48 60 40 41 20 33 66 9 29 73 51 30 47 60 63 39 320 294 291 285 270 273 282 277 280 297 302 235 291 354 27 23 35 56 51 51 55 44 34 36 50 63 47 40 44 39 35 32 30 34 34 31 34 29 23 27 19 22 18 8 7 360 355 353 353 355 354 346
40 114 66 42 28 24 43 71 70 61 71 83 86 91 94 55 53 60 67 67 50 48 64 57 46 37 43 101 73 66 96 96 328 313 323 325 325 326 328 329 336 340 349 355 49 32 39 30 25 10 45 53 41 35 39 46 40 27 34 40 34 31 37 22 13 40 34 46 41 49 46 36 27 16 14 10 354 1 354 358 347 353 352 353 346
39 65 68 76 68 77 60 53 86 101 107 130 123 125 116 108 73 46 70 67 63 60 55 48 44 44 42 40 53 113 98 31 350 336 331 333 329 335 338 341 339 352 340 349 40 30 30 42 33 28 23 35 42 41 33 26 26 31 26 29 36 32 23 25 360 3 27 19 25 44 55 89 53 313 271 295 327 351 328 317 322 336 350 335 340
29 24 43 48 42 49 101 111 87 79 133 147 152 176 155 145 129 125 49 48 53 55 49 50 52 46 46 50 63 84 76 311 329 331 329 321 330 334 340 335 340 343 1 24 37 37 32 43 42 39 33 30 33 35 38 32 22 22 25 28 34 31 16 5 19 10 5 11 359 16 4 12 14 359 352 349 337 328 282 265 239 220 334 345 344
64 42 52 35 78 67 81 36 133 123 25 358 276 204 187 136 144 148 150 157 124 32 58 59 61 67 57 61 55 18 334 327 318 315 321 312 315 324 356 316 304 309 58 32 25 31 31 38 38 27 31 34 29 28 34 29 14 31 22 22 20 25 26 16 15 11 356 353 14 23 7 6 15 1 353 344 350 352 354 357 359 11 13 4 357
132 159 182 177 239 216 191 66 31 109 142 168 187 289 84 99 148 167 175 175 180 171 171 162 7 70 86 58 17 348 330 338 330 330 319 319 315 316 306 279 53 56 46 36 41 37 35 35 37 31 27 30 25 20 23 31 23 30 18 13 22 30 23 16 15 7 355 340 18 29 6 13 15 7 0 355 355 353 353 353 356 360 1 353 358
309 209 187 200 196 238 116 94 55 40 33 355 345 299 275 174 209 216 201 208 163 163 149 150 155 171 141 68 217 307 330 330 333 330 322 314 318 338 20 32 63 62 55 48 44 50 48 39 36 32 30 33 23 18 23 27 25 32 12 348 356 45 31 32 19 18 353 346 9 42 24 17 18 359 358 351 356 353 348 353 353 351 347 344 343
332 351 51 22 17 12 55 86 91 92 16 332 315 311 305 295 301 307 338 42 97 54 131 143 142 149 199 201 187 246 233 279 307 316 312 305 312 329 54 50 34 57 69 56 58 72 66 63 48 55 80 68 47 18 1 360 347 38 17 348 355 58 29 3 9 135 18 5 6 356 349 348 347 349 345 348 343 342 333 339 351 343 338 333 333
297 344 53 40 16 340 350 351 111 156 204 242 250 268 288 290 291 310 291 293 230 205 146 162 176 171 174 179 190 191 191 245 326 320 292 299 301 303 29 79 63 54 45 46 37 26 64 58 16 9 19 50 46 31 22 351 332 348 342 329 214 219 164 49 359 358 1 354 28 25 5 1 5 11 8 2 352 348 354 354 346 326 315 320 331
184 83 73 63 13 340 315 307 322 273 218 214 233 247 293 322 324 305 277 275 291 274 256 158 190 168 155 163 168 193 172 180 218 240 250 251 34 37 9 69 120 119 116 122 125 145 144 160 79 78 68 48 29 20 12 358 355 4 353 326 345 357 19 25 26 18 24 23 21 16 13 5 2 359 353 344 340 347 334 324 309 301 302 297 280
340 146 111 181 267 5 319 278 267 310 329 330 314 343 346 0 340 324 352 15 5 356 346 1 48 80 126 149 165 186 205 217 241 236 228 160 126 115 347 55 52 22 46 50 41 31 27 21 28 86 73 54 36 30 7 347 341 10 23 11 354 358 2 28 31 25 20 24 18 12 7 3 358 353 339 331 329 313 303 307 316 311 310 322 320
340 47 167 175 108 317 239 293 300 278 277 294 14 360 354 345 337 349 347 348 345 340 336 34 97 65 73 58 41 40 261 266 272 296 357 78 106 111 116 76 74 61 21 54 52 46 34 25 9 40 45 42 26 15 14 2 8 356 1 3 5 360 2 9 12 28 27 20 18 15 6 357 352 343 340 339 333 328 326 317 309 316 314 300 290
348 354 350 6 146 278 296 214 213 253 232 333 296 294 291 331 359 355 329 324 315 320 319 44 101 103 83 76 65 36 311 290 296 326 29 4 78 101 76 82 81 52 43 47 45 34 34 25 20 41 43 30 28 26 12 3 0 1 1 3 3 7 4 6 22 29 27 18 11 5 358 352 347 342 338 334 332 336 334 333 329 319 310 323 333
319 316 86 195 274 289 316 6 355 350 340 47 44 15 358 356 342 344 321 309 316 304 284 254 132 124 114 107 81 307 290 279 285 268 269 244 126 129 252 60 66 82 120 92 62 39 21 17 19 22 26 41 48 29 11 2 5 352 352 4 11 8 0 12 23 21 19 11 4 358 355 349 343 337 331 334 336 335 330 322 313 313 332 345 338
265 261 279 46 87 34 342 19 346 358 323 5 344 308 295 298 275 261 271 330 335 329 335 343 26 59 101 142 164 272 295 343 4 351 29 34 17 19 53 85 82 42 33 59 75 69 35 18 25 26 19 21 38 33 22 14 4 359 352 355 356 13 17 18 20 20 13 9 3 357 351 343 337 333 331 332 334 331 326 325 326 331 336 330 334
266 248 243 194 100 71 227 140 258 258 267 280 269 239 209 194 231 321 353 352 357 3 9 351 339 24 29 41 22 337 360 0 14 21 17 356 9 80 70 84 93 93 43 82 89 55 26 23 18 23 38 33 30 28 24 17 9 11 31 38 38 32 35 31 23 8 7 5 1 343 336 336 331 329 327 327 325 326 323 324 321 322 322 325 325
293 333 336 327 278 208 118 78 34 331 328 342 314 305 313 340 20 41 52 45 27 18 359 352 346 353 4 17 9 14 13 2 1 18 3 11 17 40 37 26 37 61 59 47 35 25 27 38 34 37 28 36 40 35 21 22 17 51 59 53 50 46 35 26 19 13 10 5 350 338 329 321 322 322 323 324 325 323 320 315 312 312 313 309 315
329 7 265 30 29 358 4 47 16 11 20 345 327 317 332 355 1 349 26 65 44 12 6 354 348 2 351 5 30 22 13 11 24 8 52 75 39 30 53 52 8 38 36 34 40 45 50 51 46 41 42 29 25 22 32 22 52 69 61 56 52 40 34 17 14 17 9 346 331 322 324 326 321 322 322 322 319 314 312 312 311 309 311 314 312
266 270 304 64 39 250 265 294 217 171 265 279 264 326 351 333 328 326 346 3 143 148 94 78 43 4 6 32 19 5 20 19 21 32 29 41 49 49 20 20 16 34 24 24 33 56 67 66 62 47 37 25 19 16 16 21 73 75 69 62 53 53 18 358 3 12 3 328 322 326 330 328 323 316 314 311 308 308 308 308 311 309 310 311 310
357 295 284 270 70 49 296 279 11 338 322 296 298 282 313 6 9 351 320 318 356 2 345 32 74 51 40 37 25 32 37 30 24 43 50 48 46 47 49 41 20 10 14 26 16 42 45 46 35 40 33 31 22 15 4 67 83 74 68 59 79 75 45 12 341 10 316 313 337 337 331 326 317 311 305 304 307 309 308 307 307 310 302 303 307
132 359 336 307 261 48 240 188 339 264 246 267 314 324 327 287 271 276 332 9 5 338 326 6 51 30 13 21 42 41 38 29 21 29 49 43 42 48 51 51 27 19 23 38 6 2 22 34 34 33 25 21 18 12 43 79 66 63 57 79 111 46 350 327 301 306 324 343 331 321 317 312 308 307 308 310 310 313 311 310 310 310 310 311 310
168 263 241 277 316 43 310 27 209 200 178 221 308 318 304 281 310 3 3 346 340 313 347 15 25 9 7 36 57 41 42 32 9 356 31 104 89 13 359 337 350 68 56 338 332 346 18 23 12 21 20 11 21 27 69 75 60 66 97 126 155 246 276 289 327 26 328 297 309 310 303 301 303 309 313 314 314 309 310 312 312 313 314 312 317